Regional Weather Roundup
Issued by NWS

Home | Current Version | Previous Version | Graphics & Text | Print | Product List | Glossary On
Versions: 1 2 3 4 5 6 7 8 9 10 11 12 13 14 15 16 17 18 19 20 21 22 23 24 25 26 27 28 29 30 31 32 33 34 35 36 37 38 39 40 41 42 43 44 45 46 47 48 49 50
000
ASUS44 KMEG 011800
RWRTN
TENNESSEE HOURLY STATE WEATHER ROUNDUP
NATIONAL WEATHER SERVICE MEMPHIS TN
100 PM CDT MON SEP 01 2014

TNZ002-004-019-021-049-052-054-088>092-011900-
WEST TENNESSEE

CITY           SKY/WX    TMP DP  RH WIND       PRES   REMARKS
MEMPHIS INTL   MOSUNNY   90  73  57 S14       30.05F HX  98
NWS MEMPHIS      N/A     89 N/A N/A MISG        N/A
JACKSON        MOSUNNY   87  73  62 W14       30.05F HX  94
DYERSBURG      PTSUNNY   82  68  61 SW9       30.03F
UNION CITY     SUNNY     84  73  70 SW14      30.00F HX  91
PARIS          SUNNY     82  72  69 SW10      30.04S
LEXINGTON      SUNNY     88  72  58 SW10      30.06F HX  94
SAVANNAH       MOSUNNY   88  73  62 W7        30.08S HX  96
$$

TNZ008-025-027-028-033-062-065-066-011900-
NORTH MIDDLE TENNESSEE

CITY           SKY/WX    TMP DP  RH WIND       PRES   REMARKS
NASHVILLE      PTSUNNY   89  70  53 SW9       30.06F HX  94
CLARKSVILLE    MOSUNNY   86  72  62 SW16G29   30.02S HX  92
COOKEVILLE     MOSUNNY   90  75  62 SW10      30.10S HX 100
CROSSVILLE     MOSUNNY   83  66  56 SW8G21    30.16F
$$

TNZ061-075-076-078-094-096-097-011900-
SOUTH MIDDLE TENNESSEE

CITY           SKY/WX    TMP DP  RH WIND       PRES   REMARKS
FAYETTEVILLE   SUNNY     88  70  55 SW7       30.11F HX  92
TULLAHOMA      MOSUNNY   86  72  62 S10       30.13S HX  92
WINCHESTER     MOSUNNY   88  72  58 W8        30.12S HX  94
SHELBYVILLE    SUNNY     90  70  51 SW10      30.10F HX  95
$$

TNZ017-018-042-046-047-011900-
NORTHEAST TENNESSEE

CITY           SKY/WX    TMP DP  RH WIND       PRES   REMARKS
TRI CITIES     MOSUNNY   85  66  53 W12       30.15F
ELIZABETHTON   PTCLDY    84  66  54 SW9       30.15F
$$

TNZ012-013-036-069-073-074-011900-
CENTRAL EAST TENNESSEE

CITY           SKY/WX    TMP DP  RH WIND       PRES   REMARKS
KNOXVILLE      MOSUNNY   87  71  58 SW8       30.10F HX  93
OAK RIDGE      MOSUNNY   88  72  58 VRB6      30.12F HX  94
GATLINBURG     CLEAR     90  68  48 W9        30.11F HX  93
$$

TNZ083-085-099-011900-
SOUTHEAST TENNESSEE

CITY           SKY/WX    TMP DP  RH WIND       PRES   REMARKS
CHATTANOOGA    PTSUNNY   90  71  53 SW6       30.10F HX  96
$$

SKY/WX REPORTED AS FAIR MEANS FEW OR NO CLOUDS BELOW
12 THOUSAND FEET.



USA.gov is the U.S. government's official web portal to all federal, state and local government web resources and services.